This demonstration page uses our WeatherBlox Daily Observations layout. Learn more.

Left ArrowRight Arrow

Hourly Observations for January 12, 2016

Temp ( °F °C ) Dew Point ( °F °C ) Humidity (%) Winds ( mph kmh ) Pressure ( in mb ) Visibility ( mi km ) Precip ( " mm )
12:53 am 00:53 Clear 30 -1.1 23 -5 75 75 WNW 12 19 30.03 1017 10 16 0.00 0.00
1:53 am 01:53 Cloudy 30 -1.1 23 -5 75 75 NW 9 15 30.04 1017 10 16 0.00 0.00
2:53 am 02:53 Mostly Cloudy 29 -1.7 23 -5 78 78 NW 9 15 30.09 1019 10 16 0.00 0.00
3:22 am 03:22 Cloudy 27 -3 21 -6 80 80 NE 16 26 30.18 1022 10 16 0.00 0.00
3:53 am 03:53 Cloudy 25 -3.9 20 -6.7 81 81 NE 15 24 30.14 1021 10 16 0.00 0.00
4:08 am 04:08 Cloudy 25 -4 19 -7 80 80 NNE 15 24 30.21 1023 10 16 0.00 0.00
4:36 am 04:36 Cloudy 25 -4 18 -8 74 74 NNE 10 17 30.21 1023 10 16 0.00 0.00
4:53 am 04:53 Cloudy 24 -4.4 18 -7.8 77 77 NNE 12 19 30.17 1022 10 16 0.00 0.00
5:53 am 05:53 Cloudy 22 -5.6 15 -9.4 75 75 N 12 19 30.20 1023 10 16 0.00 0.00
6:53 am 06:53 Mostly Cloudy 21 -6.1 15 -9.4 78 78 NNE 7 11 30.23 1024 10 16 0.00 0.00
7:08 am 07:08 Mostly Clear 19 -7 14 -10 79 79 NE 8 13 30.27 1025 10 16 0.00 0.00
7:53 am 07:53 Clear 17 -8.3 12 -11.1 80 80 ENE 3 6 30.25 1024 9 14 0.00 0.00
8:27 am 08:27 Mostly Cloudy 16 -8.9 11 -11.7 80 80 E 5 7 30.33 1027 8 13 0.00 0.00
8:53 am 08:53 Cloudy 17 -8.3 11 -11.7 77 77 ESE 3 6 30.28 1025 8 13 0.00 0.00
9:53 am 09:53 Cloudy 18 -7.8 13 -10.6 81 81 Calm 30.31 1026 8 13 0.00 0.00
10:53 am 10:53 Cloudy 19 -7.2 13 -10.6 77 77 Calm 30.32 1027 8 13 0.00 0.00
11:53 am 11:53 Cloudy 21 -6.1 14 -10 74 74 S 6 9 30.29 1026 9 14 0.00 0.00
12:53 pm 12:53 Cloudy 23 -5 16 -8.9 74 74 S 7 11 30.26 1025 9 14 0.00 0.00
1:53 pm 13:53 Cloudy 26 -3.3 19 -7.2 75 75 SSW 9 15 30.23 1024 10 16 0.00 0.00
2:53 pm 14:53 Cloudy 28 -2.2 21 -6.1 75 75 SSW 9 15 30.20 1023 10 16 0.00 0.00
3:40 pm 15:40 Partly Cloudy 30 -1 21 -6 69 69 S 9 15 30.21 1023 10 16 0.00 0.00
3:53 pm 15:53 Sunny 30 -1.1 22 -5.6 72 72 S 9 15 30.19 1022 10 16 0.00 0.00
4:53 pm 16:53 Sunny 29 -1.7 23 -5 78 78 S 8 13 30.19 1023 10 16 0.00 0.00
5:53 pm 17:53 Clear 28 -2.2 22 -5.6 78 78 S 7 11 30.18 1022 10 16 0.00 0.00
6:53 pm 18:53 Clear 27 -2.8 22 -5.6 81 81 S 9 15 30.17 1022 10 16 0.00 0.00
7:53 pm 19:53 Clear 26 -3.3 21 -6.1 81 81 S 7 11 30.19 1022 10 16 0.00 0.00
8:53 pm 20:53 Clear 26 -3.3 20 -6.7 78 78 S 9 15 30.16 1021 10 16 0.00 0.00
9:53 pm 21:53 Clear 26 -3.3 20 -6.7 78 78 SSW 10 17 30.15 1021 10 16 0.00 0.00
10:53 pm 22:53 Clear 27 -2.8 21 -6.1 78 78 SSW 10 17 30.14 1021 10 16 0.00 0.00
11:53 pm 23:53 Clear 28 -2.2 22 -5.6 78 78 SSW 8 13 30.12 1020 10 16 0.00 0.00

Powered by AerisWeather